Hourly Data Report for April 26, 2017

CLYDE RIVER A
NUNAVUT

70°29'09.000" N
68°31'01.000" W
26.50 m
2400804
71090
YCY

Download Data

Hourly Data (April 2017)
Hourly Data Report for April 26, 2017
TIME
LST
Temp Definition
°C
Dew Point Definition
°C
Rel Hum Definition
%
Precip. Amount Definition
mm

Wind Dir Definition
10's deg

Wind Spd Definition
km/h
Visibility Definition
km
Stn Press Definition
kPa
Hmdx Definition


Wind Chill Definition


Weather Definition


00:00 -14.7 -16.7 85 0.0 31 43 4.8 100.89   -27 Snow
01:00 -15.0 -17.0 85 0.0 31 45 2.4 100.83   -28 Snow,Blowing Snow
02:00 -15.3 -17.3 85 0.0 31 43 3.2 100.80   -28 Snow,Blowing Snow
03:00 -15.8 -17.8 85 0.0 31 43 4.8 100.79   -29 Fog
04:00 -15.3 -17.4 84 0.0 30 41 3.6 100.77   -28 Snow,Blowing Snow
05:00 -15.2 -17.5 83 0.0 31 45 2.8 100.73   -28 Snow,Blowing Snow
06:00 -15.3 -17.5 84 0.0 31 46 2.0 100.68   -29 Snow,Blowing Snow
07:00 -15.3 -17.5 83 0.0 31 46 1.6 100.63   -29 Blowing Snow
08:00 -15.5 -17.9 82 0.0 31 45 2.0 100.61   -29 Blowing Snow
09:00 -15.1 -17.4 83 0.0 31 41 2.4 100.62   -28 Blowing Snow
10:00 -14.9 -17.8 79 0.0 31 41 6.4 100.59   -27 Haze
11:00 -14.5 -17.4 79 0.0 31 41 6.4 100.58   -27 Haze
12:00 -14.0 -17.0 78 0.0 31 43 6.4 100.55   -26 Haze
13:00 -14.1 -16.6 82 0.0 31 43 4.8 100.55   -27 Haze
14:00 -13.8 -16.6 80 0.0 32 43 4.8 100.53   -26 Fog
15:00 -13.9 -16.9 78 0.0 32 39 11.3 100.55   -26 LegendNANA
16:00 -14.1 -17.1 78 0.0 31 32 16.1 100.57   -25 LegendNANA
17:00 -14.1 -17.3 77 0.0 31 30 16.1 100.56   -25 LegendNANA
18:00 -14.3 -17.6 77 0.0 31 34 16.1 100.55   -26 LegendNANA
19:00 -14.2 -17.6 76 0.0 31 28 16.1 100.58   -25 LegendNANA
20:00 -15.2 -18.5 76 0.0 30 22 16.1 100.58   -25 LegendNANA
21:00 -16.0 -19.5 75 0.0 30 28 16.1 100.58   -27 LegendNANA
22:00 -16.8 -19.9 77 0.0 31 24 16.1 100.58   -27 LegendNANA
23:00 -18.3 -21.3 77 0.0 31 21 16.1 100.56   -29 LegendNANA

Notes on Data Quality.

Legend

  • E = Estimated
  • M = Missing
  • NA = Not Available*
  • [empty] = Indicates an unobserved value
Date modified: